Regional Weather Roundup
Issued by NWS Jackson, KY

Home | Current Version | Previous Version | Graphics & Text | Print | Product List | Glossary On
Versions: 1 2 3 4 5 6 7 8 9 10 11 12 13 14 15 16 17 18 19 20 21 22 23 24 25 26 27 28 29 30 31 32 33 34 35 36 37 38 39 40 41 42 43 44 45 46 47 48 49 50
000
ASUS43 KJKL 250605
RWRJKL

EAST KENTUCKY HOURLY WEATHER ROUNDUP
NATIONAL WEATHER SERVICE JACKSON KY
100 AM EST SUN JAN 25 2015

NOTE: "FAIR" INDICATES FEW OR NO CLOUDS BELOW 12,000 FEET WITH
NO SIGNIFICANT WEATHER AND/OR OBSTRUCTIONS TO VISIBILITY.

* THESE REPORTS ARE NOT UNDER NWS QUALITY CONTROL AND MAY NOT
  REPORT WEATHER SUCH AS PRECIPITATION AND FOG.

KYZ079-080-083-085-087-088-110-112-115-119-120-250700
...EASTERN KENTUCKY...

CITY           SKY/WX    TMP DP  RH WIND       PRES   REMARKS
JACKSON        CLEAR     33  30  88 SW6       29.84S WCI  28
6HR MIN TEMP:  32; 6HR MAX TEMP:  34;

LONDON         CLEAR     34  27  75 S5        29.87S WCI  30
6HR MIN TEMP:  29; 6HR MAX TEMP:  37;

SOMERSET*      CLEAR     32  32 100 CALM      29.88F
MONTICELLO*    CLEAR     37  31  79 SW8       29.90F WCI  31
6HR MIN TEMP:  31; 6HR MAX TEMP:  37;

MIDDLESBORO*   CLEAR     28  27  96 CALM      29.91S
6HR MIN TEMP:  27; 6HR MAX TEMP:  37;

HARLAN APT*    CLEAR     32  32 100 CALM      29.89R
BLACK MTN*       N/A     27  27 100 W3          N/A
PIKEVILLE APT* CLEAR     34  30  86 S5        29.84S WCI  30
BIG SANDY*     CLEAR     34  32  90 SW3       29.85S
6HR MIN TEMP:  34; 6HR MAX TEMP:  36;

MOREHEAD APT*  CLOUDY    34  30  86 S6        29.84S WCI  29
$$

KYZ035-036-041-042-044-050-067-078-099-250700
...CENTRAL KENTUCKY...

CITY           SKY/WX    TMP DP  RH WIND       PRES   REMARKS
MT STERLING*   CLEAR     32  32 100 SW8       29.84S FOG     WCI  25
FLEMING/MASON* PTCLDY    30  28  92 S10       29.81F FOG     WCI  21
DANVILLE*      PTCLDY    32  32 100 SW9       29.84F WCI  24
RICHMOND*      PTCLDY    36  32  87 S10       29.83F WCI  28
LEXINGTON      PTCLDY    34  29  82 S12       29.82F WCI  25
6HR MIN TEMP:  31; 6HR MAX TEMP:  34;

FRANKFORT      MOCLDY    34  29  82 S8        29.80F WCI  27
6HR MIN TEMP:  32; 6HR MAX TEMP:  34;

$$

KYZ091>093-OHZ055-061-077-WVZ005-015-034-035-042-250700
...SOUTHERN OHIO/WEST VIRGINIA...

CITY           SKY/WX    TMP DP  RH WIND       PRES   REMARKS
COVINGTON      CLOUDY    33  29  85 S7        29.77S WCI  27
COLUMBUS       CLOUDY    34  28  79 SW7       29.76S WCI  28
DAYTON         CLOUDY    36  30  79 S10       29.75S WCI  28
WILMINGTON     CLOUDY    34  28  79 SW9       29.76F WCI  27
HUNTINGTON     CLEAR     32  30  92 S6        29.83S FOG     WCI  26
CHARLESTON     CLOUDY    34  30  85 SW8       29.83F WCI  27
PINEVILLE*     CLOUDY    35  33  94 MISG      29.89S
BECKLEY        CLOUDY    30  26  85 W12       29.80R WCI  20
BLUEFIELD      CLOUDY    31  26  82 W10       29.79S WCI  22
$$

VAZ002-007-008-TNZ017-027-036-066-071-250700
...SOUTHWEST VIRGINIA/EAST TENNESSEE...

CITY           SKY/WX    TMP DP  RH WIND       PRES   REMARKS
WISE*          PTCLDY    32  27  80 CALM      29.84S
JONESVILLE*    CLEAR     27  27 100 CALM      29.92S
ABINGDON*      MOCLDY    33  29  83 W5        29.86F WCI  29
BRISTOL        PTCLDY    32  27  81 CALM      29.89F
KNOXVILLE      CLEAR     34  27  75 SW12      29.93S WCI  25
OAK RIDGE      CLEAR     31  27  85 CALM      29.94S
CROSSVILLE     CLEAR     33  27  78 SW6       29.90F WCI  28
NASHVILLE      CLEAR     36  29  75 S6        29.90S WCI  31
$$

...KEY TO REMARKS...
VSB - VISIBILITY IN MILES
WCI - WIND CHILL INDEX
HX  - HEAT INDEX

$$



USA.gov is the U.S. government's official web portal to all federal, state and local government web resources and services.